CAPE
0 0 0 0 0 11 0 0 0 3 1 0 0 1 0 0 0 0 2 2 3 16 0 1 17 0 1 6 5 0 0 0
0 0 0 0 0 0 0 0 0 0 1 0 2 0 1 2 2 0 1 1 0 1 0 0 2 8 9 0 0 0 0 4
0 15 8 0 0 0 0 0 0 0 1 1 1 1 2 1 1 1 0 1 2 0 0 1 2 0 1 0 0 0 4 0
9 25 16 0 0 0 0 0 0 0 2 1 1 1 1 1 1 0 0 0 0 0 0 0 1 0 1 0 0 0 1 0
29 42 11 0 0 0 0 0 0 0 4 0 1 1 0 0 0 0 0 0 0 0 0 0 0 0 3 0 0 0 1 0
41 86 50 0 0 0 0 0 0 1 2 1 0 0 0 0 0 0 0 0 0 0 0 0 0 0 0 0 0 3 0 0
31 156 65 0 0 0 0 0 1 3 1 0 0 0 0 0 0 0 0 0 0 0 0 0 0 0 0 0 5 0 2 2
72 189 153 0 0 0 0 0 0 5 1 0 0 0 0 0 0 0 0 0 0 0 0 0 0 1 0 1 0 5 1 77
51 233 146 23 0 0 0 0 0 2 3 0 1 0 0 0 0 0 0 0 0 0 0 0 0 2 15 22 11 12 38 45
96 234 132 21 0 0 0 0 0 1 4 0 0 0 0 0 0 0 0 0 0 0 0 0 0 4 5 36 34 32 33 10
34 107 131 34 0 0 0 0 0 0 2 4 2 0 0 0 0 0 0 0 0 0 0 0 0 0 0 2 24 26 15 1
0 179 170 67 0 0 0 0 0 0 0 3 3 5 0 0 0 0 0 0 0 0 0 0 0 0 0 0 1 5 12 6
33 111 213 108 53 1 0 0 0 0 0 0 1 2 3 0 0 0 0 0 0 0 0 0 0 0 0 0 0 0 0 0
0 126 209 172 70 44 0 0 0 0 0 0 0 0 3 6 1 0 0 0 0 0 0 0 0 0 0 0 0 0 0 0
0 0 39 156 157 101 51 7 0 0 0 0 0 0 0 0 6 4 3 0 0 0 0 0 0 0 0 0 0 0 0 0
0 0 0 0 1 41 121 68 23 12 0 0 0 0 0 0 0 0 3 5 0 0 0 0 0 0 0 0 0 0 0 0
0 0 0 0 0 0 0 199 137 45 32 3 11 4 0 0 0 0 0 0 1 0 0 0 0 0 0 0 0 0 0 0
0 0 1 0 0 0 0 0 59 216 132 74 18 12 43 39 24 16 3 0 0 12 10 3 1 0 0 0 0 0 0 0
0 0 0 0 0 0 0 0 0 7 212 165 106 36 9 31 50 71 58 34 22 7 4 13 10 2 0 0 0 0 0 0
CIN
0 0 0 -70 0 -337 0 0 0 -27 -29 0 0 0 0 0 0 -11 -8 -3 -43 -43 0 -43 -27 0 -24 -57 -74 0 0 0
0 -69 0 0 0 0 0 0 0 0 0 0 0 0 0 0 0 0 -2 0 0 0 0 0 -40 -23 -36 0 0 0 0 -62
0 -221 -257 0 0 0 0 0 0 -9 -5 0 0 0 0 0 0 0 0 0 0 0 0 -32 -37 -3 -33 0 -19 -22 -88 -22
-159 -220 -269 0 0 0 0 0 0 0 -2 -1 0 0 0 0 0 0 0 0 0 0 0 0 -42 0 -42 0 0 -6 -55 0
-181 -221 -283 0 0 0 0 0 0 -2 -1 -2 0 0 0 0 0 0 0 0 0 0 0 0 0 0 -50 -14 0 0 -38 0
-181 -181 -247 0 0 0 0 0 0 -5 -1 -4 0 0 0 0 0 0 0 0 0 0 0 0 0 0 0 0 0 -78 0 0
-161 -201 -323 0 0 0 0 0 -7 -4 -4 -1 0 0 0 0 0 0 0 0 0 0 0 0 0 0 0 0 -89 0 -31 -20
-190 -240 -292 0 0 0 0 0 0 -2 -4 0 0 0 0 0 0 0 0 0 0 0 0 0 0 -28 -23 -64 0 -73 -56 -52
-159 -204 -270 -370 0 0 0 0 0 -3 -3 0 0 0 0 0 0 0 0 0 0 0 0 0 0 -64 -48 -48 -58 -53 -61 -40
-143 -186 -218 -349 0 0 0 0 0 -2 0 -6 0 0 0 0 0 0 0 0 0 0 0 0 0 -40 -35 -28 -38 -57 -43 -50
-111 -150 -217 -286 0 0 0 0 0 0 -5 -1 -4 0 0 0 0 0 0 0 0 0 0 0 0 0 0 -34 -32 -41 -61 -18
0 -122 -187 -262 0 0 0 0 0 0 0 -4 -3 -1 0 0 0 0 0 0 0 0 0 0 0 0 0 0 -60 -43 -55 -65
-55 -80 -125 -203 -298 -108 0 0 0 0 0 0 -4 -2 -3 -10 0 0 0 0 0 0 0 0 0 0 0 0 0 0 0 -4
0 -59 -85 -120 -200 -319 -86 0 0 0 0 0 0 -1 -1 -4 -15 -5 0 0 0 0 0 0 0 0 0 0 0 0 0 0
0 0 -32 -100 -113 -177 -303 -333 0 0 0 0 0 0 0 -1 -2 -11 -10 -11 0 0 0 0 0 0 0 0 0 0 0 0
0 0 0 0 -32 -105 -187 -264 -360 -385 0 0 0 0 0 0 0 -2 -9 -10 -16 0 0 0 0 0 0 0 0 0 0 0
0 0 0 0 0 0 0 -136 -220 -324 -318 -229 -361 -447 -8 -5 0 0 0 0 -8 0 0 0 0 0 0 0 0 0 0 0
0 0 -265 0 0 0 0 0 -198 -220 -259 -297 -315 -313 -335 -352 -327 -332 -100 0 0 -242 -241 -154 -1 0 0 0 0 0 0 0
0 0 0 0 0 0 0 0 0 -82 -153 -201 -243 -265 -283 -253 -237 -267 -262 -249 -271 -278 -238 -224 -203 -131 0 0 0 0 0 0
Wind_Speed
3 4 5 5 5 6 7 8 8 10 9 10 10 9 8 8 7 8 10 13 15 14 15 15 17 17 18 17 14 12 10 10
9 6 6 8 7 6 7 8 9 10 11 10 10 10 7 7 7 2 9 11 11 15 19 17 15 17 17 16 12 11 11 9
11 8 7 7 6 5 8 9 9 10 11 12 10 11 10 9 6 7 9 10 12 17 16 16 14 15 17 15 14 11 10 9
12 10 8 7 8 7 8 8 9 10 11 12 14 13 13 12 10 9 8 7 11 18 14 14 14 13 15 14 13 12 12 10
12 11 9 9 8 6 8 9 10 11 12 12 14 14 16 16 13 6 11 13 16 17 16 16 14 16 14 14 13 13 13 13
13 13 12 9 9 6 7 10 10 12 12 12 12 13 15 15 17 15 14 13 12 21 26 14 12 15 17 17 13 14 13 11
14 13 10 8 8 6 8 9 11 13 14 13 13 14 14 14 15 19 19 18 20 19 23 24 23 25 24 22 20 17 12 10
11 11 10 9 10 7 7 7 10 12 15 16 16 15 15 16 17 21 23 15 13 23 20 18 16 17 15 14 15 15 14 11
12 13 10 10 10 9 7 7 8 12 14 16 17 16 16 17 18 21 24 20 16 8 9 12 14 14 13 13 14 14 14 14
11 11 10 7 12 11 9 8 9 13 12 14 16 16 16 17 19 21 24 23 20 18 17 16 18 17 16 14 14 15 15 14
9 11 9 8 11 10 9 8 10 12 11 14 15 16 17 18 19 20 21 23 21 20 19 20 19 19 20 20 18 18 18 17
6 8 7 6 7 8 7 8 9 10 12 11 13 12 16 15 16 19 19 21 21 19 21 21 22 22 20 19 19 17 19 19
10 3 5 5 6 6 6 6 7 9 9 10 12 12 12 14 14 16 18 19 20 20 18 21 24 24 22 23 23 20 21 21
18 5 3 4 5 6 6 6 7 7 9 10 11 12 12 12 14 14 15 17 17 19 18 20 22 23 24 24 25 24 22 21
17 19 12 9 3 5 6 6 7 8 8 10 11 13 13 12 11 14 14 15 16 18 20 20 21 23 24 23 23 22 22 23
17 18 19 16 16 21 12 6 6 8 9 10 12 13 12 13 14 14 14 15 16 17 18 21 22 21 22 23 22 22 22 23
19 21 21 21 21 21 23 20 11 8 9 11 12 13 14 15 15 16 16 17 17 18 20 21 21 22 23 23 23 23 23 25
21 21 22 23 24 26 25 24 26 14 12 11 12 14 15 17 17 17 18 18 18 18 19 20 22 23 24 25 26 23 23 24
21 21 23 26 28 28 28 27 25 25 29 22 16 16 17 17 18 18 18 18 19 20 21 22 22 22 22 24 24 25 26 25
Wind_Direction
181 128 122 109 79 80 88 84 74 55 45 32 12 340 319 306 276 239 224 215 204 195 182 182 193 188 207 202 194 210 205 198
170 153 114 115 94 87 95 87 74 61 71 70 61 51 21 344 311 225 183 186 196 177 166 176 195 199 200 192 192 189 178 202
172 163 143 132 118 97 103 95 87 83 89 93 72 76 56 58 53 86 123 153 166 157 166 201 199 194 197 190 202 197 192 197
179 171 162 137 128 116 113 104 96 97 98 91 89 75 82 82 83 97 97 150 158 153 176 181 176 197 191 187 194 209 197 218
185 176 167 154 140 119 116 112 109 109 109 101 108 105 118 123 116 101 104 120 135 147 168 211 208 214 207 201 198 211 218 210
180 177 175 161 144 131 119 115 113 122 121 115 113 111 124 125 130 130 132 127 136 140 153 161 175 194 210 174 200 216 227 207
176 173 170 159 147 131 126 118 123 128 132 124 125 123 126 130 140 148 148 145 149 150 157 159 157 165 170 173 172 177 194 209
174 168 168 161 157 149 140 127 129 134 138 138 135 133 132 136 144 153 159 161 161 164 162 168 169 170 187 197 193 193 195 224
171 169 168 166 164 163 154 145 139 141 143 145 144 142 140 143 146 155 162 161 163 179 178 181 188 190 205 207 207 212 231 242
165 167 171 177 168 169 164 155 149 155 148 148 150 148 146 148 152 155 162 163 163 163 166 169 172 183 191 197 204 208 216 221
178 174 180 175 167 168 167 164 161 160 161 157 155 156 155 155 155 160 163 169 169 172 174 176 179 182 187 192 198 198 202 208
309 189 177 186 179 172 176 173 169 169 169 168 165 160 163 159 162 167 169 173 176 176 180 183 186 190 193 199 201 208 207 212
341 190 178 197 195 194 195 200 195 188 183 178 178 175 171 173 174 174 175 178 181 183 184 188 191 193 197 199 202 208 211 218
332 22 145 202 217 233 228 226 215 225 198 193 190 188 191 190 187 186 185 187 190 192 195 198 198 199 200 202 206 211 217 223
352 352 323 286 215 236 251 239 234 227 218 210 209 208 209 211 212 202 199 200 200 201 203 206 207 208 209 211 214 220 225 229
335 346 343 347 323 287 275 256 234 229 241 238 230 235 234 229 224 229 227 220 217 217 216 213 213 215 218 221 226 232 238 243
324 320 328 331 330 330 306 279 264 247 243 238 254 250 245 241 241 243 240 238 234 230 223 223 224 224 224 226 230 240 245 253
316 316 318 323 322 320 316 308 295 259 250 258 258 263 252 251 256 253 247 246 251 246 246 242 237 235 231 232 232 242 250 248
318 318 317 314 314 316 315 310 310 304 280 275 270 268 266 266 258 253 257 259 252 253 255 256 257 247 246 240 241 245 248 251